Temp
62 62 62 62 62 62 62 63 63 63 63 63 63 63 63 62 62 72 73 87 88 80 81 92 93 93 95 91 94 94 68 69 76 76 74 95 90 93 97 91 92 90 82 83 86
62 62 62 61 62 62 62 62 62 62 62 62 62 62 62 62 68 75 86 84 83 81 89 90 87 91 88 89 91 84 60 63 80 80 80 90 93 92 90 90 85 84 83 85 86
61 61 61 61 61 62 62 62 62 61 61 61 61 62 62 65 71 86 84 85 83 84 94 95 95 92 86 91 90 88 72 69 76 82 93 88 93 97 90 85 85 80 81 84 84
61 61 61 61 61 61 61 61 61 61 61 61 61 62 62 70 70 92 84 82 82 93 92 93 92 87 84 83 92 85 78 83 83 90 86 76 84 84 92 89 92 88 86 85 83
60 60 60 60 60 60 61 61 60 60 60 61 61 62 64 69 78 99 81 83 91 92 89 90 88 88 83 88 91 88 79 84 81 88 83 75 84 79 88 95 95 91 88 86 86
60 59 59 60 60 60 60 60 59 60 60 61 62 63 66 66 98 102 99 90 92 90 90 93 91 94 89 89 89 92 93 93 89 97 90 87 84 87 88 98 93 90 88 89 89
59 59 59 59 60 60 60 59 59 60 61 64 63 67 71 76 102 105 101 93 95 93 89 95 98 93 92 88 95 94 86 92 88 96 95 97 82 85 77 96 91 90 89 90 92
59 59 59 59 59 59 59 58 59 61 64 64 65 69 69 97 94 97 102 98 99 98 96 99 101 95 92 95 93 88 86 78 90 94 96 94 81 88 89 93 90 90 90 90 92
59 59 59 59 58 58 57 57 60 63 64 64 66 71 74 91 90 97 100 95 96 98 97 101 98 90 91 83 80 85 75 79 84 95 93 91 84 94 96 95 90 89 90 90 90
58 58 58 58 58 57 56 58 67 63 66 74 77 70 78 84 94 96 100 99 93 93 90 90 90 83 84 80 69 75 77 81 80 90 92 89 88 94 97 92 91 91 91 90 90
58 58 58 57 57 56 62 84 76 72 77 71 76 77 86 95 100 94 97 94 94 89 79 85 79 75 79 83 84 84 82 81 87 92 88 87 88 91 94 92 91 88 91 90 91
58 57 57 57 56 56 63 75 74 75 63 75 77 78 83 90 84 91 98 86 85 77 83 80 74 83 86 85 83 82 81 82 88 93 89 88 86 93 93 94 93 90 92 92 92
57 57 57 56 56 67 82 77 85 83 64 68 77 77 80 85 80 87 92 88 82 78 79 75 80 86 84 82 80 80 79 81 84 88 87 88 82 88 93 93 95 95 96 95 93
57 57 56 54 65 78 78 84 86 84 57 68 78 83 84 86 78 93 95 88 84 78 81 79 87 83 81 80 82 75 86 86 85 83 75 89 72 83 90 90 92 95 93 95 95
57 57 55 53 65 73 79 86 86 79 45 81 81 93 91 80 87 83 97 89 79 81 81 77 80 81 78 80 85 80 89 85 85 82 81 82 76 82 89 87 90 94 92 97 97
56 56 54 71 76 80 86 85 80 57 46 68 75 73 76 82 82 88 85 91 89 83 84 82 90 87 86 87 88 90 86 85 84 81 70 78 79 79 85 87 92 95 97 98 99
55 54 56 70 71 85 84 76 57 48 69 62 62 67 67 69 77 80 79 77 74 68 71 78 81 88 91 84 87 86 79 68 66 67 65 80 77 80 91 94 96 95 97 99 100
54 53 68 78 84 84 78 64 47 59 59 66 63 64 62 71 72 77 75 73 78 78 74 70 68 81 89 85 81 81 79 69 57 63 68 79 72 79 93 99 102 101 101 102 101
54 75 79 84 85 82 68 54 56 58 63 59 61 56 58 65 63 66 74 75 78 79 70 72 71 87 89 90 88 80 74 85 75 77 71 76 80 89 94 95 98 100 101 100 101
61 68 72 84 85 77 63 52 61 65 64 62 52 57 50 54 55 56 61 79 79 83 85 78 70 84 87 91 89 85 88 73 76 61 61 72 75 77 83 89 94 96 99 101 101
67 68 79 85 82 68 56 59 61 66 65 59 55 53 53 50 49 52 57 61 71 80 85 81 76 77 85 80 79 81 79 80 80 76 66 66 75 93 86 90 92 96 99 101 102
64 60 81 82 62 65 58 61 56 63 66 62 60 57 49 49 47 45 48 56 67 72 69 81 76 69 75 89 90 86 81 81 71 67 75 75 77 96 96 96 97 97 99 102 102
59 65 81 76 53 55 60 60 62 59 58 54 55 58 57 49 44 46 46 55 61 66 63 68 70 64 69 80 86 81 83 83 83 81 70 70 76 94 95 95 97 96 99 98 100
59 52 61 61 61 55 53 53 54 63 56 51 51 59 54 48 52 42 43 54 59 65 65 67 66 66 66 72 82 76 80 83 81 74 74 77 79 86 90 92 95 95 97 99 98
60 53 54 45 51 51 53 54 52 50 54 52 53 45 47 44 45 42 47 52 56 63 69 71 62 69 74 80 82 81 79 81 78 81 74 80 82 84 88 90 94 97 98 98 97
48 43 45 46 52 50 49 46 50 54 54 52 50 45 47 46 48 45 49 47 45 59 60 68 60 67 67 76 78 75 82 81 82 82 83 84 84 91 93 93 93 93 93 92 94
52 51 42 39 47 45 47 48 50 54 55 57 52 53 52 54 58 59 60 58 53 54 57 59 60 60 58 70 72 68 77 81 82 85 84 79 86 91 90 90 91 92 93 93 95
MSLP
1017.88 1017.38 1016.88 1016.44 1015.95 1015.42 1014.96 1014.43 1013.89 1013.51 1013.10 1012.68 1012.40 1011.88 1011.54 1011.30 1010.75 1009.72 1007.26 1005.10 1005.10 1005.57 1005.73 1005.05 1004.71 1004.21 1003.84 1003.18 1003.19 1003.35 1003.92 1003.39 1002.10 1001.18 1000.45 998.39 998.67 999.96 1000.11 1001.01 1002.03 1003.39 1005.59 1007.85 1009.24
1017.91 1017.39 1016.86 1016.33 1015.80 1015.24 1014.65 1014.15 1013.66 1013.12 1012.70 1012.43 1012.02 1011.73 1011.35 1011.12 1009.94 1006.84 1003.97 1004.20 1004.36 1004.77 1005.22 1004.13 1003.64 1003.34 1002.76 1002.25 1002.48 1002.74 1004.54 1004.10 1002.58 1002.57 1000.22 999.34 998.92 999.76 1000.36 1001.11 1002.99 1004.81 1007.20 1008.52 1009.36
1017.89 1017.32 1016.77 1016.17 1015.54 1014.91 1014.32 1013.74 1013.22 1012.83 1012.29 1011.90 1011.76 1011.47 1011.26 1011.03 1008.36 1002.45 1001.28 1002.29 1003.71 1004.29 1004.14 1003.39 1002.91 1002.54 1001.95 1001.50 1001.17 1001.10 1003.04 1003.72 1001.65 1002.27 1000.46 1000.08 999.16 999.20 1000.08 1001.15 1003.15 1005.03 1006.79 1008.27 1009.11
1017.95 1017.25 1016.60 1015.94 1015.24 1014.54 1013.79 1013.14 1012.65 1012.20 1011.85 1011.43 1011.25 1011.22 1011.13 1010.32 1005.41 1001.30 1001.24 1001.30 1002.82 1003.71 1003.74 1002.60 1002.07 1001.57 1001.07 1000.50 1000.12 1000.00 1001.63 1002.10 1001.07 1000.29 999.96 1001.65 1001.68 1000.36 999.82 1000.56 1002.51 1005.18 1006.35 1007.47 1008.86
1017.91 1017.18 1016.40 1015.62 1014.85 1014.06 1013.20 1012.53 1012.02 1011.53 1011.09 1010.80 1010.75 1010.94 1010.76 1008.00 1003.11 1000.83 1001.48 1002.08 1002.93 1003.20 1002.68 1001.84 1001.03 1000.58 1000.15 999.83 999.39 999.00 1000.22 1000.72 1001.01 999.49 1000.01 1002.15 1001.18 1001.55 1000.31 1000.66 1002.16 1004.71 1006.15 1007.07 1008.05
1017.86 1017.04 1016.15 1015.28 1014.40 1013.49 1012.59 1011.89 1011.37 1010.82 1010.37 1010.08 1010.23 1010.55 1009.58 1005.03 1000.53 1000.42 1000.85 1002.02 1001.93 1002.27 1001.82 1001.22 1000.17 1000.09 999.70 999.13 998.40 998.12 998.20 998.18 998.76 997.81 999.32 999.88 1000.55 1000.04 1000.41 1000.30 1001.71 1003.90 1005.25 1005.99 1006.73
1017.80 1016.93 1015.95 1014.97 1013.98 1013.00 1012.06 1011.36 1010.70 1010.22 1009.70 1009.42 1009.74 1009.63 1007.01 1001.80 999.20 998.98 999.86 1000.86 1001.07 1001.24 1001.03 1000.59 999.99 999.75 999.39 998.64 998.04 997.54 997.59 997.38 998.29 997.05 997.10 997.68 999.37 999.56 1002.17 1000.50 1001.72 1003.15 1004.47 1005.11 1005.57
1017.86 1016.91 1015.87 1014.79 1013.65 1012.37 1011.36 1010.78 1010.14 1009.57 1009.05 1008.96 1008.98 1008.82 1004.19 999.30 999.96 999.62 999.13 999.49 1000.28 1000.39 1000.57 1000.04 999.68 999.30 998.96 998.52 997.57 997.16 997.33 996.87 996.36 996.32 996.53 997.11 997.22 998.31 999.30 999.94 1000.96 1002.42 1003.59 1004.47 1004.95
1017.74 1016.78 1015.71 1014.62 1013.31 1011.93 1010.75 1009.58 1009.32 1008.98 1008.84 1008.84 1008.62 1006.94 1001.71 998.87 998.86 998.70 998.87 998.76 999.30 999.41 999.94 999.43 999.15 999.03 998.83 998.31 997.61 996.69 996.28 996.17 995.51 995.57 995.94 996.31 996.35 996.94 997.66 998.51 999.80 1001.39 1002.76 1003.66 1004.47
1017.68 1016.72 1015.66 1014.45 1013.11 1011.67 1010.42 1007.96 1007.97 1008.49 1008.52 1008.04 1006.75 1005.58 1000.73 997.75 997.33 997.85 998.09 998.19 998.46 998.76 999.21 998.83 998.51 998.49 998.04 997.45 996.15 995.81 996.01 995.26 994.90 994.72 995.14 995.23 995.51 995.89 996.57 997.65 998.31 999.56 1001.31 1002.79 1003.59
1017.48 1016.58 1015.43 1014.45 1013.01 1011.51 1010.97 1007.73 1007.57 1007.01 1006.04 1005.44 1003.13 1001.14 998.25 997.15 996.51 996.87 997.33 997.70 997.82 998.05 997.85 997.99 997.69 996.24 996.47 996.64 996.77 995.82 995.36 994.84 993.95 993.98 994.35 994.63 994.89 995.16 996.11 997.06 997.92 998.69 999.95 1001.32 1002.64
1017.52 1016.57 1015.35 1014.08 1012.90 1011.33 1010.58 1008.55 1008.44 1008.13 1004.58 1003.64 1001.83 1000.57 999.30 998.11 996.98 996.17 996.70 996.90 996.60 996.50 997.33 997.41 995.54 996.08 996.65 996.63 996.47 995.81 994.81 993.81 993.49 992.95 993.94 993.73 994.07 994.29 994.80 995.48 996.93 997.48 998.35 999.87 1001.66
1017.61 1016.46 1015.37 1013.97 1012.43 1010.59 1008.64 1008.56 1007.84 1007.02 1005.03 1000.59 998.65 997.73 997.37 998.12 996.63 995.11 995.66 995.52 995.52 995.66 995.67 995.12 994.73 995.76 995.69 995.67 995.45 995.20 994.57 993.59 992.88 992.70 994.36 993.68 993.64 993.48 994.18 995.64 995.25 996.17 997.29 998.52 1000.28
1017.66 1016.59 1015.41 1014.49 1012.02 1010.28 1008.61 1008.22 1007.34 1006.73 1003.98 997.44 995.55 994.34 995.57 996.43 995.44 994.90 994.67 994.88 994.83 994.39 994.65 994.72 994.75 994.48 994.68 994.43 994.72 994.19 994.43 993.90 992.97 992.41 992.37 992.61 992.73 992.96 993.13 993.69 994.71 995.45 996.49 997.22 998.75
1017.54 1016.55 1015.64 1014.99 1013.39 1010.08 1008.94 1007.92 1007.25 1006.40 1002.46 994.93 994.62 994.81 994.00 994.76 992.82 993.78 993.66 994.22 993.59 993.46 994.21 992.64 993.21 993.07 993.33 993.43 993.95 993.70 993.86 993.91 993.41 992.83 992.71 991.87 992.25 991.85 992.52 992.53 993.22 994.01 994.87 995.79 997.16
1017.38 1016.48 1015.97 1012.85 1011.51 1009.90 1008.72 1007.87 1006.77 1005.61 1000.68 997.85 997.29 996.88 995.49 994.64 994.37 993.19 993.57 993.75 994.11 993.30 993.03 992.72 992.81 992.40 992.07 993.04 993.19 993.57 993.53 993.67 993.80 993.40 992.21 991.93 991.70 991.06 990.88 991.50 991.86 992.75 993.78 994.80 995.90
1017.24 1016.05 1015.62 1014.00 1011.07 1009.35 1008.72 1007.42 1005.76 1004.33 1001.40 1000.66 1000.55 999.82 998.70 996.47 994.58 993.81 993.23 992.99 992.67 992.76 991.48 992.16 991.55 991.48 991.30 991.47 992.39 992.77 993.06 992.82 992.63 992.25 991.65 992.34 991.46 990.39 989.93 990.23 990.77 991.41 992.60 993.47 994.56
1016.48 1014.87 1012.82 1011.71 1010.17 1009.46 1008.66 1007.24 1005.44 1004.01 1003.60 1003.65 1003.35 1002.09 1000.01 997.59 995.80 994.06 993.49 992.51 992.68 992.07 991.56 990.65 990.29 989.81 989.86 990.08 990.66 991.24 991.58 991.00 991.19 991.49 992.07 992.36 990.59 989.97 990.29 989.63 989.59 990.07 990.99 992.18 993.39
1015.97 1012.71 1010.48 1009.89 1009.81 1009.41 1008.37 1006.44 1004.70 1004.92 1005.13 1004.92 1004.49 1002.94 1001.27 1000.00 999.74 996.89 993.46 991.87 991.78 992.03 990.55 989.71 989.02 989.82 989.25 989.71 989.93 990.35 990.13 991.40 991.60 991.65 991.14 990.60 990.59 990.31 989.71 989.48 989.22 989.27 989.81 990.86 992.14
1015.94 1012.69 1010.45 1009.68 1009.55 1008.95 1007.89 1006.29 1005.43 1005.88 1006.36 1006.36 1005.62 1005.28 1003.85 1003.45 1002.50 1001.13 996.71 992.63 991.93 991.86 991.75 989.86 989.25 988.45 988.67 989.14 989.36 988.90 990.66 991.09 991.10 990.56 989.86 989.31 988.48 987.88 988.30 988.38 988.80 988.79 988.93 989.80 991.11
1014.81 1011.10 1009.33 1009.55 1008.98 1008.35 1006.91 1006.17 1006.62 1007.17 1007.37 1006.96 1006.57 1006.24 1005.71 1005.58 1005.74 1004.00 1000.14 997.78 994.86 992.37 991.56 991.34 989.81 988.08 987.92 987.40 987.71 988.73 988.93 990.08 990.76 990.47 989.66 988.54 986.63 985.47 986.24 986.92 987.58 988.28 988.95 989.43 990.29
1015.67 1011.46 1009.22 1009.45 1008.62 1007.54 1007.26 1007.59 1007.88 1007.41 1007.31 1007.35 1007.62 1007.23 1007.62 1008.00 1007.11 1006.34 1004.22 1001.95 999.15 996.73 993.40 990.85 989.89 988.81 987.12 986.45 987.49 988.13 988.53 988.92 989.24 989.69 989.39 988.15 986.29 985.46 985.14 986.00 986.96 987.73 988.39 989.44 989.94
1016.04 1012.18 1009.61 1010.05 1009.63 1009.30 1008.98 1008.71 1008.75 1008.39 1008.58 1008.75 1008.38 1008.06 1008.37 1008.43 1008.15 1007.62 1006.32 1004.45 1001.87 998.88 996.42 994.37 990.56 989.15 987.95 986.49 986.13 986.69 987.68 988.52 988.93 989.38 988.66 988.06 986.87 986.50 985.73 985.87 986.79 987.64 988.31 989.08 989.97
1016.82 1013.90 1012.65 1012.56 1012.09 1011.74 1010.72 1010.09 1009.33 1009.04 1009.66 1010.53 1010.09 1008.45 1008.62 1008.60 1008.54 1008.27 1007.64 1005.49 1003.42 1000.27 997.72 996.29 993.13 990.06 987.27 986.10 985.47 986.22 987.09 987.76 988.24 987.90 988.20 987.63 987.32 987.36 987.11 986.99 987.24 987.84 988.55 989.03 989.81
1017.76 1016.58 1016.40 1015.23 1014.19 1013.85 1012.74 1011.34 1010.27 1009.87 1010.36 1010.45 1009.50 1009.81 1009.91 1008.77 1008.55 1008.28 1007.83 1006.11 1004.01 1000.96 997.75 995.43 993.47 991.43 988.96 987.31 986.02 986.02 986.70 986.94 987.01 987.29 987.47 987.13 986.85 987.41 987.62 987.88 987.92 988.37 988.92 989.24 989.90
1019.42 1019.68 1019.47 1018.06 1016.15 1015.10 1013.70 1013.08 1011.41 1010.35 1010.18 1009.55 1009.29 1009.64 1010.32 1008.70 1008.23 1007.45 1007.32 1007.04 1005.70 1002.33 999.80 996.89 994.59 992.82 990.39 988.64 987.66 986.52 985.78 986.39 986.64 987.04 987.04 986.87 986.36 987.17 987.94 988.52 988.84 989.39 989.87 990.23 990.69
1020.63 1020.77 1020.69 1018.98 1017.04 1016.03 1014.74 1013.70 1012.50 1011.56 1010.96 1009.99 1009.55 1008.88 1008.06 1007.64 1007.40 1007.01 1006.69 1006.13 1005.99 1003.81 1001.27 999.00 996.63 994.59 992.05 990.71 988.83 987.11 985.91 985.70 986.38 986.53 986.85 986.46 986.49 986.95 987.94 988.65 989.28 990.08 990.78 991.31 991.78
Wind_Speed
21 21 21 21 21 21 20 20 20 19 18 18 16 17 16 16 19 14 18 13 14 13 7 12 18 20 20 21 18 15 11 14 7 10 9 17 20 18 19 20 13 13 29 25 26
21 22 22 22 22 22 22 21 21 21 20 17 16 15 16 15 18 24 18 16 9 17 17 19 21 20 17 21 15 17 4 10 15 7 9 12 17 17 12 15 25 28 29 25 24
22 22 23 23 23 23 22 22 22 21 20 19 15 15 14 13 12 15 6 31 18 18 21 20 19 21 22 18 19 21 7 13 22 18 15 5 17 16 15 17 24 26 29 28 27
23 23 24 24 24 24 24 24 23 22 20 19 16 13 10 11 8 7 6 17 23 20 20 23 22 24 22 21 20 18 18 18 19 21 6 16 14 8 12 20 28 25 28 30 26
24 24 24 25 26 26 25 24 23 22 21 18 14 10 7 12 15 10 12 15 20 20 23 24 25 23 24 21 20 18 19 21 16 26 26 29 9 3 4 22 28 28 28 28 26
24 24 25 25 26 26 26 25 23 22 19 14 10 7 8 19 15 18 13 16 18 23 24 24 21 22 21 23 22 18 15 15 21 8 28 24 19 20 14 23 27 28 27 28 28
25 26 27 28 28 28 27 24 24 20 17 14 11 11 15 24 12 12 18 17 20 24 25 25 24 22 23 21 23 21 16 16 16 14 8 10 26 17 13 18 25 26 25 23 22
25 26 28 29 30 31 29 24 22 18 16 10 13 13 12 16 24 22 13 18 18 20 24 23 23 21 24 20 20 22 16 17 19 16 13 10 14 26 27 25 24 24 23 22 22
25 26 29 30 32 31 30 29 22 14 5 5 10 15 11 6 21 23 19 20 20 18 21 22 22 22 22 22 19 23 17 23 20 19 17 16 15 14 24 23 25 23 22 22 20
26 27 28 30 32 32 32 34 8 7 8 11 13 11 12 14 13 22 24 20 22 21 21 23 18 21 21 20 20 19 21 19 24 22 23 19 17 15 18 22 26 25 23 21 23
29 29 29 29 32 32 19 9 14 5 10 20 11 16 17 9 7 17 23 23 23 24 24 25 19 26 29 26 23 23 21 24 21 21 19 22 18 16 19 14 24 21 22 23 22
28 28 30 30 30 30 17 16 15 12 23 20 28 33 33 30 19 16 24 26 27 27 26 23 29 27 27 25 27 28 25 24 23 21 19 22 20 19 21 22 20 25 25 23 23
28 30 31 33 32 19 11 17 15 16 15 21 31 29 30 27 26 19 28 29 29 30 30 29 19 26 28 27 28 29 27 24 21 12 11 19 17 21 18 27 12 26 25 25 24
26 28 30 30 10 17 14 18 16 13 10 12 13 10 25 25 29 26 28 28 26 32 30 28 30 30 28 29 28 27 28 27 25 19 17 23 14 17 18 16 21 22 17 24 25
26 27 27 20 14 12 18 17 16 9 10 11 9 5 7 27 5 33 24 30 31 25 32 29 26 28 29 27 28 25 27 25 26 19 19 17 15 14 20 20 24 23 23 22 25
30 29 24 14 11 12 18 18 10 8 13 15 27 26 23 22 29 20 33 30 27 29 27 31 27 27 24 23 28 25 23 24 24 18 18 22 20 20 18 22 19 22 25 24 25
30 31 20 11 9 16 15 12 7 8 20 20 29 30 29 27 20 29 29 31 29 29 28 28 33 28 27 23 26 24 22 15 17 19 15 22 22 14 16 23 22 24 21 23 22
33 35 12 11 12 14 12 13 11 11 16 22 25 29 26 22 23 20 27 28 33 31 18 24 31 35 21 30 24 28 26 15 24 17 17 22 23 20 21 21 18 25 25 23 23
34 11 11 5 12 10 10 11 11 10 17 20 22 21 26 30 21 29 27 27 31 33 31 24 29 24 31 24 25 24 28 23 21 21 17 18 29 25 23 24 21 18 23 24 24
13 12 13 10 12 10 10 15 13 15 18 18 22 20 25 25 25 25 22 28 27 32 32 29 17 30 31 26 29 30 21 22 17 21 20 19 22 19 24 23 24 18 15 22 23
9 10 9 12 11 11 12 12 16 16 16 17 20 21 22 19 21 22 15 25 29 13 32 30 26 21 29 32 27 22 22 25 19 17 15 15 13 16 26 24 20 22 16 15 21
9 8 9 8 14 7 9 13 10 16 14 15 14 18 11 17 18 16 17 15 27 25 18 19 23 21 26 29 31 28 27 25 13 21 16 15 11 11 3 23 19 15 21 17 14
10 14 8 15 10 12 15 17 17 11 17 11 20 14 15 13 15 10 16 26 35 27 13 13 14 20 26 24 30 33 30 27 21 17 20 15 10 9 10 20 19 18 12 18 14
8 10 9 11 13 18 18 17 15 12 9 14 32 12 16 16 15 7 15 17 31 30 13 6 9 20 19 20 18 29 29 28 28 18 15 18 7 7 5 5 11 14 11 11 12
6 6 10 9 13 20 21 19 18 13 3 8 16 4 24 11 16 5 13 22 23 25 18 8 13 18 25 23 23 28 26 29 30 21 22 18 19 15 10 7 7 10 9 13 10
3 3 6 12 17 17 18 15 19 16 17 16 17 8 20 17 12 13 16 13 11 20 21 18 8 13 19 21 19 22 32 30 29 29 21 23 17 21 15 12 9 11 10 10 8
3 2 2 6 14 10 11 19 21 21 13 16 10 17 19 13 15 16 14 15 17 22 18 14 13 10 16 17 21 20 12 25 26 24 24 20 17 19 19 18 14 12 9 5 1
Wind_Direction
355 352 348 345 341 337 333 330 326 321 316 313 310 306 305 307 300 248 243 242 205 191 228 216 211 215 210 231 224 264 275 305 318 31 310 143 95 102 104 134 125 94 134 143 145
352 347 343 340 337 333 330 326 322 318 312 308 306 301 303 312 291 265 241 225 192 176 218 214 207 208 219 232 224 228 93 294 301 178 227 344 114 126 132 115 104 114 117 145 153
347 342 339 336 333 329 325 321 319 315 308 303 296 295 299 305 276 254 26 209 188 175 217 227 214 212 225 230 227 244 147 247 278 274 224 53 137 143 138 125 125 136 141 154 155
343 339 335 333 330 326 322 319 317 311 303 297 290 285 293 271 263 63 23 184 169 196 216 227 215 216 226 231 236 236 152 193 270 276 84 37 290 352 156 129 129 145 151 150 159
341 336 333 329 327 324 319 317 315 309 302 290 278 267 246 218 245 237 114 141 173 198 208 221 212 216 222 232 233 236 179 167 268 261 132 165 159 259 150 140 130 146 159 158 164
338 334 331 328 325 322 318 317 313 311 305 288 253 210 238 246 247 210 155 164 187 199 211 221 217 222 227 235 238 239 235 243 211 207 152 163 165 160 235 131 138 154 167 168 170
336 334 331 329 325 321 316 315 313 309 301 287 230 214 235 237 258 207 195 187 197 200 209 218 226 221 229 232 248 248 252 231 255 229 208 204 175 152 141 147 149 159 167 177 177
336 334 330 327 324 320 316 313 308 302 301 291 201 208 254 247 234 265 209 198 207 195 218 218 227 234 234 246 244 249 224 255 229 222 223 198 219 139 162 176 153 161 171 176 180
334 332 330 327 323 319 316 306 297 279 311 169 177 221 258 192 228 214 228 210 195 205 211 229 219 227 231 232 241 233 232 227 238 206 222 208 237 185 168 163 158 163 174 176 183
335 333 330 327 323 318 319 303 293 205 215 195 264 221 235 232 208 216 204 217 200 207 204 222 213 217 226 215 223 225 220 231 229 201 206 209 224 181 190 168 166 166 172 179 185
334 333 330 328 322 317 329 347 346 182 332 286 257 243 296 254 291 190 204 205 203 206 206 206 211 214 216 221 226 243 224 221 233 224 206 221 219 170 179 183 188 167 173 175 185
329 329 328 327 320 312 302 8 359 295 297 274 263 264 265 279 283 218 192 199 200 204 202 199 222 214 218 217 226 233 244 234 231 204 211 216 207 214 194 193 171 176 181 173 182
330 330 330 327 318 299 350 354 326 320 286 284 245 240 233 237 243 217 196 199 201 203 201 212 213 219 217 214 222 223 233 245 235 164 268 225 228 222 191 219 190 175 182 173 184
330 329 329 335 299 321 350 334 326 325 286 272 201 244 219 224 228 237 197 202 208 210 207 217 222 202 218 221 216 222 224 240 252 243 207 204 209 214 218 173 180 190 184 176 179
329 329 331 324 299 310 339 322 317 281 291 97 82 19 212 205 219 211 213 207 217 207 209 211 215 222 209 219 217 225 220 227 248 258 253 218 222 213 210 215 181 190 178 193 177
329 325 334 300 257 284 322 314 281 250 242 7 4 352 336 205 233 253 206 210 219 227 218 225 213 226 214 210 225 222 229 222 230 246 247 246 235 212 214 206 208 189 185 191 179
322 315 311 289 288 327 321 296 278 251 306 360 347 342 324 306 242 240 201 206 207 221 211 217 228 215 224 211 209 214 215 215 218 213 231 235 246 251 238 194 206 184 197 189 182
323 311 269 251 297 324 306 282 268 278 339 343 338 318 297 287 301 240 240 211 208 223 218 215 208 220 206 213 203 210 213 220 214 218 219 230 230 232 251 260 224 182 186 190 182
318 309 270 191 335 309 288 280 319 350 348 335 322 314 318 332 340 324 245 229 205 220 221 211 227 202 228 213 213 197 215 217 226 225 230 221 220 247 225 241 249 229 189 184 178
315 291 267 3 324 286 268 274 307 4 344 322 312 315 308 313 322 331 309 226 211 210 233 241 229 222 203 214 216 229 196 215 228 236 234 226 225 213 218 217 223 230 210 184 179
289 300 55 345 300 264 264 323 346 343 305 308 318 310 307 330 327 308 278 329 355 259 210 237 250 237 220 206 207 208 219 208 228 233 241 251 240 222 199 202 210 202 210 210 185
304 304 343 315 301 325 340 349 326 319 319 314 307 301 348 327 313 311 294 290 324 321 295 239 230 245 249 213 208 211 215 211 218 217 243 266 278 17 285 183 194 213 187 210 208
309 300 25 356 312 337 337 330 329 322 335 347 305 318 312 301 299 286 322 324 309 322 354 353 239 229 241 248 190 212 208 221 218 225 220 241 245 58 9 160 180 191 217 186 210
294 316 352 325 355 336 336 318 313 329 6 354 300 333 315 316 294 273 326 314 319 303 325 289 262 253 227 232 207 193 214 209 226 210 225 223 162 124 86 123 160 168 192 196 190
315 346 340 315 328 325 311 304 310 311 231 216 290 87 299 318 320 284 308 321 323 323 320 269 261 255 256 238 232 191 208 214 211 224 214 224 220 136 137 126 135 151 182 187 137
300 356 347 300 289 311 311 330 315 323 326 316 326 84 278 315 314 311 323 305 297 318 332 337 283 275 266 261 271 266 198 212 214 221 223 234 226 134 130 120 141 103 75 69 85
53 320 263 279 292 290 292 323 318 315 318 302 257 295 305 310 307 293 278 254 258 286 313 324 342 309 254 253 254 249 244 203 217 210 220 221 234 145 148 151 144 139 156 138 42